TimeCDT,TemperatureF,Dew PointF,Humidity,Sea Level PressureIn,VisibilityMPH,Wind Direction,Wind SpeedMPH,Gust SpeedMPH,PrecipitationIn,Events,Conditions,WindDirDegrees,DateUTC
12:15 AM,17.6,15.8,93,30.28,10.0,Calm,Calm,-,N/A,,Clear,0,2012-10-28 05:15:00
12:35 AM,15.8,14.0,93,30.28,10.0,North,5.8,-,N/A,,Clear,10,2012-10-28 05:35:00
12:55 AM,15.8,14.0,93,30.28,10.0,Calm,Calm,-,N/A,,Clear,0,2012-10-28 05:55:00
1:15 AM,15.8,14.0,93,30.28,10.0,North,5.8,-,N/A,,Partly Cloudy,360,2012-10-28 06:15:00
1:35 AM,14.0,14.0,100,30.27,10.0,North,6.9,-,N/A,,Partly Cloudy,10,2012-10-28 06:35:00
1:55 AM,14.0,14.0,100,30.27,10.0,NNE,5.8,-,N/A,,Clear,20,2012-10-28 06:55:00
2:15 AM,14.0,14.0,100,30.28,10.0,North,4.6,-,N/A,,Clear,10,2012-10-28 07:15:00
2:35 AM,15.8,14.0,93,30.28,10.0,North,6.9,-,N/A,,Clear,360,2012-10-28 07:35:00
2:55 AM,14.0,12.2,93,30.28,10.0,North,5.8,-,N/A,,Clear,360,2012-10-28 07:55:00
3:15 AM,14.0,14.0,100,30.28,10.0,North,5.8,-,N/A,,Clear,10,2012-10-28 08:15:00
3:35 AM,14.0,12.2,93,30.27,10.0,NNE,6.9,-,N/A,,Clear,20,2012-10-28 08:35:00
3:55 AM,15.8,14.0,93,30.27,10.0,NNE,5.8,-,N/A,,Clear,30,2012-10-28 08:55:00
4:15 AM,15.8,14.0,93,30.27,10.0,NNE,6.9,-,N/A,,Clear,30,2012-10-28 09:15:00
4:35 AM,15.8,14.0,93,30.27,10.0,ESE,4.6,-,N/A,,Clear,110,2012-10-28 09:35:00
4:55 AM,15.8,12.2,86,30.27,10.0,NNE,6.9,-,N/A,,Clear,30,2012-10-28 09:55:00
5:15 AM,15.8,12.2,86,30.28,10.0,Calm,Calm,-,N/A,,Clear,0,2012-10-28 10:15:00
5:35 AM,15.8,14.0,93,30.27,10.0,NE,5.8,-,N/A,,Partly Cloudy,40,2012-10-28 10:35:00
5:55 AM,15.8,14.0,93,30.27,10.0,ENE,4.6,-,N/A,,Clear,60,2012-10-28 10:55:00
6:15 AM,15.8,14.0,93,30.27,10.0,ENE,3.5,-,N/A,,Scattered Clouds,60,2012-10-28 11:15:00
6:35 AM,14.0,10.4,86,30.27,10.0,NE,5.8,-,N/A,,Mostly Cloudy,40,2012-10-28 11:35:00
6:55 AM,15.8,12.2,86,30.28,10.0,NE,4.6,-,N/A,,Partly Cloudy,40,2012-10-28 11:55:00
7:15 AM,14.0,12.2,93,30.27,10.0,NE,3.5,-,N/A,,Clear,50,2012-10-28 12:15:00
7:35 AM,14.0,12.2,93,30.27,10.0,ENE,4.6,-,N/A,,Scattered Clouds,60,2012-10-28 12:35:00
7:55 AM,15.8,14.0,93,30.26,10.0,ENE,5.8,-,N/A,,Overcast,70,2012-10-28 12:55:00
8:15 AM,17.6,14.0,86,30.26,10.0,East,6.9,-,N/A,,Overcast,80,2012-10-28 13:15:00
8:35 AM,17.6,15.8,93,30.27,10.0,East,8.1,-,N/A,,Overcast,80,2012-10-28 13:35:00
8:55 AM,17.6,15.8,93,30.27,10.0,East,6.9,-,N/A,,Overcast,90,2012-10-28 13:55:00
9:35 AM,19.4,17.6,93,30.26,10.0,East,10.4,-,N/A,,Overcast,90,2012-10-28 14:35:00
9:55 AM,21.2,17.6,86,30.26,10.0,East,9.2,-,N/A,,Overcast,90,2012-10-28 14:55:00
10:15 AM,23.0,19.4,86,30.26,10.0,East,8.1,-,N/A,,Overcast,100,2012-10-28 15:15:00
10:35 AM,24.8,23.0,93,30.25,10.0,East,8.1,-,N/A,,Overcast,100,2012-10-28 15:35:00
10:55 AM,24.8,23.0,93,30.25,10.0,ESE,9.2,-,N/A,,Overcast,120,2012-10-28 15:55:00
11:15 AM,26.6,24.8,93,30.26,10.0,ESE,8.1,-,N/A,,Overcast,110,2012-10-28 16:15:00
11:35 AM,28.4,24.8,86,30.25,10.0,SE,6.9,-,N/A,,Overcast,140,2012-10-28 16:35:00
11:55 AM,28.4,24.8,86,30.25,10.0,SE,9.2,-,N/A,,Overcast,130,2012-10-28 16:55:00
12:35 PM,28.4,24.8,86,30.25,10.0,SE,9.2,-,N/A,,Overcast,140,2012-10-28 17:35:00
12:55 PM,28.4,23.0,80,30.24,10.0,SSE,10.4,-,N/A,,Overcast,150,2012-10-28 17:55:00
1:15 PM,30.2,23.0,75,30.24,10.0,SSE,9.2,-,N/A,,Overcast,160,2012-10-28 18:15:00
1:35 PM,28.4,23.0,80,30.23,10.0,SSE,12.7,-,N/A,,Overcast,150,2012-10-28 18:35:00
1:55 PM,30.2,23.0,75,30.22,10.0,ESE,11.5,16.1,N/A,,Overcast,120,2012-10-28 18:55:00
2:15 PM,32.0,23.0,69,30.21,10.0,SE,11.5,-,N/A,,Overcast,130,2012-10-28 19:15:00
2:35 PM,32.0,21.2,64,30.21,10.0,SE,13.8,-,N/A,,Overcast,130,2012-10-28 19:35:00
2:55 PM,32.0,21.2,64,30.20,10.0,SE,15.0,-,N/A,,Overcast,140,2012-10-28 19:55:00
3:15 PM,32.0,23.0,69,30.20,10.0,SE,11.5,-,N/A,,Overcast,130,2012-10-28 20:15:00
3:35 PM,32.0,23.0,69,30.19,10.0,SE,12.7,-,N/A,,Overcast,140,2012-10-28 20:35:00
3:55 PM,32.0,23.0,69,30.19,10.0,SE,15.0,18.4,N/A,,Mostly Cloudy,130,2012-10-28 20:55:00
4:15 PM,32.0,23.0,69,30.19,10.0,SE,13.8,18.4,N/A,,Overcast,130,2012-10-28 21:15:00
4:35 PM,32.0,23.0,69,30.19,10.0,SE,15.0,-,N/A,,Overcast,140,2012-10-28 21:35:00
4:55 PM,32.0,23.0,69,30.19,10.0,SE,10.4,-,N/A,,Overcast,130,2012-10-28 21:55:00
5:15 PM,32.0,23.0,69,30.18,10.0,ESE,12.7,-,N/A,,Overcast,120,2012-10-28 22:15:00
5:35 PM,32.0,23.0,69,30.18,10.0,ESE,15.0,-,N/A,,Overcast,120,2012-10-28 22:35:00
5:55 PM,32.0,23.0,69,30.18,10.0,ESE,13.8,17.3,N/A,,Overcast,110,2012-10-28 22:55:00
6:15 PM,32.0,23.0,69,30.18,10.0,ESE,12.7,18.4,N/A,,Overcast,110,2012-10-28 23:15:00
6:35 PM,32.0,24.8,75,30.18,10.0,ESE,12.7,-,N/A,,Overcast,110,2012-10-28 23:35:00
6:55 PM,32.0,24.8,75,30.17,10.0,ESE,12.7,-,N/A,,Overcast,120,2012-10-28 23:55:00
7:15 PM,32.0,24.8,75,30.17,10.0,ESE,15.0,20.7,N/A,,Overcast,110,2012-10-29 00:15:00
7:35 PM,32.0,24.8,75,30.17,10.0,ESE,13.8,20.7,N/A,,Overcast,110,2012-10-29 00:35:00
7:55 PM,30.2,24.8,80,30.17,10.0,ESE,16.1,-,N/A,,Overcast,110,2012-10-29 00:55:00
8:15 PM,30.2,24.8,80,30.17,10.0,ESE,16.1,-,N/A,,Overcast,110,2012-10-29 01:15:00
8:55 PM,30.2,24.8,80,30.18,10.0,ESE,15.0,-,N/A,,Overcast,120,2012-10-29 01:55:00
9:15 PM,30.2,24.8,80,-9999,-9999.0,ESE,16.1,-,N/A,,Overcast,120,2012-10-29 02:15:00
9:35 PM,30.2,24.8,80,-9999,-9999.0,ESE,16.1,-,N/A,,Overcast,120,2012-10-29 02:35:00
9:55 PM,30.2,24.8,80,-9999,-9999.0,ESE,15.0,18.4,N/A,,Overcast,120,2012-10-29 02:55:00
10:15 PM,30.2,24.8,80,30.17,10.0,ESE,15.0,21.9,N/A,,Overcast,110,2012-10-29 03:15:00
10:55 PM,30.2,24.8,80,30.17,8.0,ESE,16.1,20.7,N/A,,Overcast,120,2012-10-29 03:55:00
11:15 PM,30.2,26.6,86,30.17,7.0,ESE,15.0,-,N/A,,Overcast,110,2012-10-29 04:15:00
11:55 PM,28.4,26.6,93,30.17,5.0,ESE,13.8,-,N/A,,Overcast,120,2012-10-29 04:55:00